SL-18 R/B, 22562

Orbit data source: Space-Track

SL-18 R/B, 22562 is space debris in LEO originally from a launch on Thu, 25 Mar 1993 UTC launched from the Plesetsk Missile And Space Complex (PKMTR). Debris objects in space refer to the collection of defunct objects orbiting the Earth. Examples of debris include non-operational satellites, rocket bodies, and fragments generated from explosions, collisions, or faulty payload assembly.

Loading next visibility...
Identifier
22562, 1993-014B
Orbit
LEO
Country
Flag of CISCIS
Related business
Manufacturer
Kompleks-MIT
Mission
Spacecraft
Bus & Motor
START, Unknown motor
Mass
300 kg wet, 300 kg dry
Launch date (UTC)
1993-03-25 (33 years ago)
Launch vehicle
Unknown
Launch site
Plesetsk Missile And Space Complex (PKMTR)
Object type
Payload
Rocket body
Debris
Shape & HBR
Cyl, 1.3 m
Radar Cross Section
3.519 m², Large (>1 m²)

Expand to show TLE details & history
Last TLE update: 2 days ago

TLE from 2 days ago
0 SL-18 R/B
1 22562U 93014B   26171.42311815  .00000110  00000-0  41932-4 0  9991
2 22562  75.7597 162.0730 0162684 229.9224 128.7578 14.30619119732291
Epoch: 2026-06-20T10:09Z
TLE epoch observation values (Epoch: 2026-06-20T10:09:17.408Z)
Latitude
-0.00001°
Longitude
101.11251°
Altitude
866.509 km
Speed
7.381 km/s
True Right ascension
10h 48m 17s
True Declination
0° 00' 00"
Sunlit
Object was in daylight at epoch
Visualization orbit readout
Latitude
Unknown
Longitude
Unknown
Altitude
Unknown
Speed
Unknown
Apparent Right ascension
Unknown
Apparent Declination
Unknown
Sunlit
N/A
Visualization observer readout
Local Sidereal Time
00:51:02
Azimuth
Unknown
Elevation
Unknown
Doppler factor
Unknown
Orbital elements
Apogee altitude
903.719 km
Perigee altitude
670.584 km
Semi-major axis
7,165.289 km
Eccentricity
0.01627
Inclination
75.7597°
RAAN
162.073°
Arg. of periapsis
229.9224°
True anomaly
130.19309°
Mean anomaly
128.7578°
Eccentric anomaly
129.47727°
Mean motion
3.57843 °/min
Orbital period
100.6 mins
BSTAR
0.000041932
Loading maneuver chart data...
Computing Atmospheric mass density...

Documentation

Showing up to 5 results
|